Location: Bothwell
(42.3833°S, 147.0000°E)
Time: 22:18:04
(UTC+11:00)

RS-44 - Pass Details

Date: 04 October 2022
Orbit: 1175 x 1510 km, 82.5° (Epoch: 29 November)

Event Time Altitude Azimuth Distance (km) Brightness Sun altitude
Exits shadow 23:55:13 58° 246° (WSW) 1,733 ? -40.8°
Drops below altitude 10° 00:03:42 10° 178° (S) 3,700 ? -41.4°
Sets 00:06:44 0° 174° (S) 4,677 ? -41.6°
